PST,Max TemperatureF,Mean TemperatureF,Min TemperatureF,Max Dew PointF,MeanDew PointF,Min DewpointF,Max Humidity, Mean Humidity, Min Humidity, Max Sea Level PressureIn, Mean Sea Level PressureIn, Min Sea Level PressureIn, Max VisibilityMiles, Mean VisibilityMiles, Min VisibilityMiles, Max Wind SpeedMPH, Mean Wind SpeedMPH, Max Gust SpeedMPH,PrecipitationIn, CloudCover, Events, WindDirDegrees
2013-1-1,54,46,37,36,33,30,76,61,45,30.31,30.27,30.24,10,10,8,18,6,24,T,2,,68
2013-1-2,56,45,33,38,33,29,89,68,46,30.27,30.22,30.17,10,10,8,9,3,13,0.00,0,,63
2013-1-3,53,44,34,40,36,31,89,72,54,30.30,30.25,30.20,10,8,6,7,4,13,0.00,0,,14
2013-1-4,55,47,38,41,37,32,79,67,54,30.33,30.27,30.21,10,8,5,9,3,10,0.00,0,,39
2013-1-5,55,48,40,48,43,36,93,80,66,30.30,30.18,30.08,10,7,2,13,4,17,0.12,6,Rain,137
2013-1-6,51,46,40,46,42,38,93,84,74,30.23,30.16,30.07,10,8,5,13,6,16,T,6,Rain,37
2013-1-7,57,47,37,47,41,36,92,75,57,30.30,30.23,30.19,10,9,6,8,2,10,0.00,0,,69
2013-1-8,58,49,40,45,42,38,92,77,62,30.27,30.21,30.17,10,9,8,9,3,10,0.00,0,,3
2013-1-9,53,47,41,48,43,35,89,75,61,30.17,30.09,30.01,10,7,1,20,5,26,0.02,5,Rain,258
2013-1-10,52,44,36,35,33,30,85,65,44,30.23,30.15,30.12,10,10,10,8,7,9,0.00,0,,334
2013-1-11,51,43,34,40,34,29,83,68,53,30.30,30.22,30.16,10,10,10,15,4,18,0.00,1,,342
2013-1-12,49,41,33,34,28,25,89,64,39,30.29,30.23,30.18,10,10,10,10,4,13,0.00,1,,70
2013-1-13,48,40,31,27,24,15,75,57,38,30.31,30.25,30.22,10,10,10,9,4,13,0.00,0,,43
2013-1-14,54,43,31,23,16,12,50,34,18,30.45,30.39,30.27,10,10,10,15,4,22,0.00,0,,49
2013-1-15,54,44,33,29,26,23,69,54,38,30.52,30.47,30.44,10,10,9,9,4,12,0.00,0,,41
2013-1-16,56,45,34,36,32,28,82,62,41,30.47,30.38,30.29,10,7,5,14,4,15,0.00,0,,49
2013-1-17,59,47,35,36,32,29,89,63,36,30.30,30.24,30.18,10,7,4,8,2,12,0.00,0,,200
2013-1-18,61,49,36,40,34,29,85,62,38,30.26,30.20,30.17,10,8,5,10,3,13,0.00,0,,21
2013-1-19,64,50,35,40,33,28,70,52,34,30.29,30.23,30.19,10,10,8,9,2,10,0.00,0,,352
2013-1-20,62,49,35,37,32,28,76,56,36,30.26,30.21,30.16,10,10,9,9,3,12,0.00,0,,79
2013-1-21,64,50,36,39,34,28,76,58,39,30.21,30.16,30.11,10,9,7,10,3,15,0.00,0,,64
2013-1-22,60,49,38,42,39,34,86,69,51,30.14,30.09,30.04,8,6,4,10,2,12,0.00,0,,77
2013-1-23,56,53,49,49,46,41,89,74,59,30.12,30.06,30.00,10,4,1,17,3,21,0.04,6,Rain,46
2013-1-24,58,55,51,51,49,48,93,85,77,30.23,30.15,30.07,10,4,2,12,2,14,0.01,8,Rain,38
2013-1-25,66,58,50,54,51,48,100,84,67,30.22,30.15,30.07,10,5,2,10,3,14,0.00,5,,273
2013-1-26,57,52,46,49,45,40,100,81,61,30.12,30.06,30.02,10,8,4,21,9,28,0.00,3,,274
2013-1-27,55,47,38,42,38,34,85,68,50,30.22,30.17,30.12,10,10,10,14,6,17,0.00,0,,310
2013-1-28,58,48,38,44,38,34,83,67,51,30.33,30.26,30.21,10,10,10,16,5,22,0.00,1,,297
2013-1-29,56,48,39,46,40,36,86,71,55,30.39,30.35,30.31,10,10,7,12,4,16,0.00,0,,337
2013-1-30,65,53,41,44,40,37,83,62,40,30.38,30.32,30.29,10,10,10,9,3,10,0.00,0,,5
2013-1-31,62,52,41,45,41,36,82,67,51,30.32,30.27,30.21,10,9,6,8,4,10,0.00,0,,85